Location: Helsinki
(60.1699°N, 24.9384°E)
Time: 00:23:59
(UTC+02:00)

Vanguard 2 Rocket - Pass Details

Date: 21 September 2023
Orbit: 553 x 3312 km, 32.9° (Epoch: 28 November)

Event Time Altitude Azimuth Distance (km) Brightness Sun altitude
Rises 15:22:08 0° 230° (SW) 7,285 12.8 25.6°
Reaches altitude 10° 15:28:39 10° 218° (SW) 6,239 13.1 25.1°
Maximum altitude 15:41:43 23° 176° (S) 4,742 11.4 24.0°
Drops below altitude 10° 15:52:22 10° 132° (SE) 5,006 10.7 23.1°
Sets 15:56:46 0° 119° (ESE) 5,594 10.8 22.7°
